Location: Brantley
(31.5822°N, 86.2569°W)
Time: 23:11:08
(UTC+00:00)

Transit 2A Rocket - All Passes

Search period start: 16 February 2026 00:00
Search period end: 26 February 2026 00:00
Orbit: 582 x 901 km, 66.7° (Epoch: 16 February)

Date Brightness Start Highest point End Pass type
(mag) Time Alt. Az. Time Alt. Az. Time Alt. Az.
16 Feb - 07:21:06 10° NNW 07:26:21 60° ENE 07:31:04 10° SE night (unlit)
16 Feb - 09:06:24 10° W 09:07:54 11° WSW 09:09:23 10° WSW night (unlit)
16 Feb - 20:07:49 10° SE 20:10:53 15° ESE 20:14:00 10° ENE daylight
16 Feb - 21:46:44 10° SSW 21:52:38 69° WNW 21:58:40 10° NNE daylight
16 Feb - 23:35:41 10° NW 23:36:05 10° NW 23:36:28 10° NW daylight
17 Feb - 06:35:54 10° N 06:40:33 30° ENE 06:44:49 10° ESE night (unlit)
17 Feb - 08:18:35 10° NW 08:22:42 25° WSW 08:26:32 10° SSW night (unlit)
17 Feb - 21:01:12 10° SSW 21:07:02 66° ESE 21:13:01 10° NNE daylight
17 Feb - 22:45:53 10° W 22:49:55 18° NW 22:53:59 10° N daylight
18 Feb - 05:51:17 10° NNE 05:54:33 16° NE 05:57:40 10° E night (unlit)
18 Feb - 07:32:17 10° NW 07:37:21 52° WSW 07:41:56 10° S night (unlit)
18 Feb - 20:16:20 10° S 20:21:34 34° ESE 20:26:57 10° NE daylight
18 Feb - 21:58:41 10° WSW 22:03:57 32° WNW 22:09:16 10° N daylight
19 Feb - 06:46:33 10° NNW 06:51:48 74° ENE 06:56:33 10° SSE night (unlit)
19 Feb - 19:32:25 10° SE 19:36:16 18° ESE 19:40:09 10° ENE daylight
19 Feb - 21:12:18 10° SW 21:18:08 57° WNW 21:24:05 10° NNE daylight
20 Feb - 06:01:14 10° N 06:06:04 36° ENE 06:10:29 10° SE night (unlit)
20 Feb - 07:44:26 10° WNW 07:48:02 20° WSW 07:51:26 10° SSW night (unlit)
20 Feb - 20:26:34 10° SSW 20:32:30 79° ESE 20:38:32 10° NNE daylight
20 Feb - 22:12:04 10° W 22:15:32 16° NW 22:19:01 10° NNW daylight
21 Feb - 05:16:24 10° N 05:20:08 19° NE 05:23:38 10° E night (unlit)
21 Feb - 06:57:53 10° NW 07:02:44 41° WSW 07:07:08 10° S night (unlit)
21 Feb - 19:41:29 10° S 19:46:59 42° ESE 19:52:37 10° NE daylight
21 Feb - 21:24:30 10° WSW 21:29:30 27° NW 21:34:33 10° N daylight
22 Feb - 04:33:24 10° NE 04:34:00 10° NE 04:34:36 10° NE night (unlit)
22 Feb - 06:12:01 10° NNW 06:17:14 89° W 06:21:57 10° SSE night (unlit)
22 Feb - 18:57:13 10° SSE 19:01:37 22° ESE 19:06:06 10° ENE daylight
22 Feb - 20:37:55 10° SW 20:43:39 48° WNW 20:49:28 10° NNE daylight
23 Feb - 05:26:34 10° NNW 05:31:34 44° ENE 05:36:05 10° SE night (unlit)
23 Feb - 07:10:26 10° WNW 07:13:21 16° WSW 07:16:08 10° SW night (unlit)
23 Feb - 18:15:20 10° ESE 18:16:23 10° E 18:17:25 10° E daylight
23 Feb - 19:52:00 10° SSW 19:57:57 87° WNW 20:04:01 10° NNE daylight
23 Feb - 21:38:26 10° WNW 21:41:08 13° NW 21:43:51 10° NNW daylight
24 Feb - 04:41:35 10° N 04:45:41 23° NE 04:49:29 10° ESE night (unlit)
24 Feb - 06:23:32 10° NW 06:28:05 33° WSW 06:32:15 10° S night (unlit)
24 Feb - 19:06:42 10° S 19:12:24 50° ESE 19:18:13 10° NE daylight
24 Feb - 20:50:24 10° WSW 20:55:04 23° NW 20:59:45 10° N daylight
25 Feb - 03:57:31 10° NNE 03:59:37 12° NE 04:01:36 10° ENE night (unlit)
25 Feb - 05:37:31 10° NNW 05:42:39 72° WSW 05:47:18 10° SSE night (unlit)
25 Feb - 18:22:10 10° SSE 18:27:00 26° ESE 18:31:54 10° NE daylight
25 Feb - 20:03:34 10° SW 20:09:10 40° WNW 20:14:49 10° N daylight
